Regional Weather Roundup
Issued by NWS

Home | Current Version | Previous Version | Text Only | Print | Product List | Glossary On
Versions: 1 2 3 4 5 6 7 8 9 10 11 12 13 14 15 16 17 18 19 20 21 22 23 24 25 26 27 28 29 30 31 32 33 34 35 36 37 38 39 40 41 42 43 44 45 46 47 48 49 50
000
ASUS43 KLSX 280407
RWRMO

WEATHER SUMMARY FOR MISSOURI
NATIONAL WEATHER SERVICE SPRINGFIELD MO
1100 PM CDT FRI MAR 27 2015

NOTE: "FAIR" INDICATES FEW OR NO CLOUDS BELOW 12,000 FEET WITH NO
       SIGNIFICANT WEATHER AND/OR OBSTRUCTIONS TO VISIBILITY.
       CURRENT SKY AND/OR WEATHER CONDITIONS ARE NOT AVAILABLE FOR
       CHILLICOTHE AND FARMINGTON.

MOZ001>031-035>038-043-044-053-054-280500-
...NORTHERN AND WESTERN MISSOURI...

CITY           SKY/WX    TMP DP  RH WIND       PRES   REMARKS
KANSAS CTY INT CLOUDY    39  23  52 SE6       30.15F
KANSAS C DTWN  CLOUDY    42  19  39 CALM      30.16F
LEE`S SUMMIT   CLOUDY    39  21  48 E5        30.16F
ST JOSEPH      CLOUDY    38  24  57 S5        30.15F
CHILLICOTHE      N/A     39  24  55 CALM      30.18S
KIRKSVILLE     CLOUDY    33  17  51 E5        30.18S WCI  29

$$
MOZ066>068-077>081-088>096-101>105-280500-
...SOUTHWEST MISSOURI...

CITY           SKY/WX    TMP DP  RH WIND       PRES   REMARKS
SPRINGFIELD    CLOUDY    42  21  43 NE5       30.15F
JOPLIN         CLOUDY    44  24  45 E7        30.15F

$$
MOZ032>034-039>042-045>050-055>058-069>072-280500-
...CENTRAL MISSOURI...

CITY           SKY/WX    TMP DP  RH WIND       PRES   REMARKS
COLUMBIA       CLOUDY    38  23  55 CALM      30.17F
JEFFERSON CITY CLOUDY    40  22  48 CALM      30.19F
ROLLA          CLOUDY    35  27  72 CALM      30.15F
SEDALIA        CLOUDY    41  21  44 CALM      30.18S
WHITEMAN AFB   CLOUDY    39  23  53 NW5       30.17S
WARRENSBURG    CLOUDY    37  23  56 NE5       30.18R
OSAGE BEACH    CLOUDY    37  25  60 CALM      30.18S

$$
MOZ051-052-059>065-280500-
...EAST CENTRAL MISSOURI...

CITY           SKY/WX    TMP DP  RH WIND       PRES   REMARKS
ST LOUIS INTL  FAIR      35  17  47 NE8       30.21R WCI  29
SPIRIT OF STL  PTCLDY    30  24  78 CALM      30.20R
ST CHARLES     CLEAR     32  17  54 NE8       30.21R WCI  25

$$
MOZ072>076-082>087-097>100-106>115-280500-
...SOUTH CENTRAL AND SOUTHEAST MISSOURI...

CITY           SKY/WX    TMP DP  RH WIND       PRES   REMARKS
CAPE GIRARDEAU PTCLDY    30  28  92 SW3       30.20R
FARMINGTON     MOCLDY    30  21  69 CALM      30.21S
POPLAR BLUFF   MOCLDY    37  28  70 CALM      30.20R
WEST PLAINS    CLOUDY    39  20  46 CALM      30.17S

$$



USA.gov is the U.S. government's official web portal to all federal, state and local government web resources and services.